SABESAZS

Guest
Details From SABE - Aeroparque Jorge Newbery
To SAZS - San Carlos De Bariloche
Flight Number -
Tags Generated
Created
Modified
Stats Distance 722 nm / 1,337 km
Max Altitude 0 ft / 0 m
Waypoints 3
Social Downloads 5
Likes 0
Share VATSIM

Download

Looking for another format? Having issues loading an existing format? Contact us
Advertisement - Login to hide

Notes

Generated

Route

SABE R1349 SAZS

ID Type Via Altitude Latitude Longitude Leg Dist Tot Dist Heading (true) Name
O SABE APT - 0 ft / 0 m -34.55416˚ -58.42526˚ - 0 nm - -
R1349 FIX - 0 ft / 0 m -41.15557˚ -71.14482˚ 720 nm 720 nm 233° / 241° -
O SAZS APT - 0 ft / 0 m -41.14677˚ -71.17026˚ 1 nm 721 nm 295° / 295° -

Altitude Profile

Advertisement - Login to hide

Weather


0- 5 10 15 20 25 30 35+ Temperature / ° C

Clouds and Precipitation
Forecast for 2017-12-13 00:00 UTC. Updated 22 minutes ago

Ground ~20,000 ft ~40,000 ft Winds

SABE

Details ICAO SABE (AEP)
Name Aeroparque Jorge Newbery
Region Argentina
Timezone Unknown (UTC+0.0)
Stats Elevation 17 ft / 5 m (AMSL)
Location -34.559414° -58.415749°
Runways 1
Magnetic Variation 8.980° W

METAR

SABE 122300Z 11011KT CAVOK 25/16 Q1010

Decode

TAF

TAF SABE 121700Z 1218/1318 04010KT CAVOK TX32/1318Z TN21/1308Z BECMG 1219/1221 09010KT 9999 SCT035 BECMG 1303/1306 04010KT CAVOK

Decode

Departure Runways

ID Width Length Bearing (true) Bearing (mag) Surface Threshold Offset Overrun Length
13 131 ft / 40 m 6,882 ft / 2,098 m 123.87° 132.85° Concrete 0 ft / 0 m 791 ft / 241 m
31 131 ft / 40 m 6,882 ft / 2,098 m 303.86° 312.84° Concrete 991 ft / 302 m 0 ft / 0 m

SAZS

Details ICAO SAZS (BRC)
Name SAN CARLOS DE BARILOCHE
Region Argentina
Timezone America/Argentina/Salta (UTC-3.0)
Stats Elevation 2,776 ft / 846 m (AMSL)
Location -41.151172° -71.157541°
Runways 1
Magnetic Variation 6.659° E

METAR

SAZS 122300Z 29020KT 9999 SCT040 BKN100 18/06 Q1014

Decode

TAF

TAF SAZS 121700Z 1218/1318 29020KT 9999 SCT045 TX22/1219Z TN09/1308Z BECMG 1223/1301 27010KT BECMG 1311/1313 29025G35KT SCT020

Decode

Destination Runways

ID Width Length Bearing (true) Bearing (mag) Surface Threshold Offset Overrun Length
11 157 ft / 48 m 7,693 ft / 2,345 m 114.70° 108.04° Asphalt 0 ft / 0 m 0 ft / 0 m
29 157 ft / 48 m 7,693 ft / 2,345 m 294.68° 288.02° Asphalt 0 ft / 0 m 0 ft / 0 m

Approach Navaids

Runway Type Ident Frequency Range Bearing (true) Bearing (mag) Slope Elevation
29 Localiser BR 109.50 MHz 18 nm / 33 km 294.79° 288.14° - 2,776 ft / 846 m (AMSL)
29 Glidescope BR 109.50 MHz 10 nm / 19 km 294.69° 288.03° 3.00° 2,776 ft / 846 m (AMSL)
29 DME BR 109.50 MHz 18 nm / 33 km - - - 2,776 ft / 846 m (AMSL)

Popular Alternatives